Location: Bothwell
(41.7170°N, 112.2589°W)
Time: 01:23:34
(UTC+00:00)

Tiros 1 - Pass Details

Date: 12 May 2026
Orbit: 618 x 649 km, 48.4° (Epoch: 6 June)

Event Time Altitude Azimuth Distance (km) Brightness Sun altitude
Rises 07:50:38 0° 225° (SW) 2,907 - -29.8°
Reaches altitude 10° 07:52:59 10° 221° (SW) 1,997 - -29.8°
Maximum altitude 07:57:27 53° 145° (SE) 765 - -29.7°
Exits shadow 08:00:31 19° 74° (ENE) 1,481 9.2 -29.6°
Drops below altitude 10° 08:01:54 10° 68° (ENE) 1,989 10.0 -29.5°
Sets 08:04:15 0° 64° (ENE) 2,894 11.0 -29.4°
